Time,TemperatureF,DewpointF,PressureIn,WindDirection,WindDirectionDegrees,WindSpeedMPH,WindSpeedGustMPH,Humidity,HourlyPrecipIn,Conditions,Clouds,dailyrainin,SoftwareType,DateUTC
2013-01-03 00:00:00,44.5,40.9,30.24,NNE,22,0.0,0.0,87,0.00,,---,0.00,VWS V14.01,2013-01-03 05:00:00,
2013-01-03 00:05:00,44.5,40.9,30.24,NNE,22,0.0,0.0,87,0.00,,---,0.00,VWS V14.01,2013-01-03 05:05:00,
2013-01-03 00:10:00,44.3,40.7,30.24,NNE,22,0.0,0.0,87,0.00,,---,0.00,VWS V14.01,2013-01-03 05:10:00,
2013-01-03 00:15:00,44.3,40.7,30.23,NNE,22,0.0,0.0,87,0.00,,---,0.00,VWS V14.01,2013-01-03 05:15:00,
2013-01-03 00:20:00,44.3,40.7,30.23,NNE,22,0.0,0.0,87,0.00,,---,0.00,VWS V14.01,2013-01-03 05:20:00,
2013-01-03 00:25:00,44.2,40.6,30.23,NNE,22,0.0,0.0,87,0.00,,---,0.00,VWS V14.01,2013-01-03 05:25:00,
2013-01-03 00:30:00,44.2,40.6,30.22,NNE,22,0.0,0.0,87,0.00,,---,0.00,VWS V14.01,2013-01-03 05:30:00,
2013-01-03 00:35:00,44.2,40.9,30.22,NNE,22,0.0,1.0,88,0.00,,---,0.00,VWS V14.01,2013-01-03 05:35:00,
2013-01-03 00:40:00,44.2,40.9,30.22,NNE,22,0.0,1.0,88,0.00,,---,0.00,VWS V14.01,2013-01-03 05:40:00,
2013-01-03 00:45:00,44.1,40.8,30.21,NNE,22,0.0,1.0,88,0.00,,---,0.00,VWS V14.01,2013-01-03 05:45:00,
2013-01-03 00:50:00,44.1,41.4,30.21,NNE,22,0.0,0.0,90,0.00,,---,0.00,VWS V14.01,2013-01-03 05:50:00,
2013-01-03 00:55:00,44.1,41.1,30.21,NNE,22,0.0,0.0,89,0.00,,---,0.00,VWS V14.01,2013-01-03 05:55:00,
2013-01-03 01:00:00,44.1,41.4,30.21,NNE,22,0.0,0.0,90,0.00,,---,0.00,VWS V14.01,2013-01-03 06:00:00,
2013-01-03 01:05:00,43.9,41.2,30.21,NNE,22,0.0,0.0,90,0.00,,---,0.00,VWS V14.01,2013-01-03 06:05:00,
2013-01-03 01:10:00,43.9,41.2,30.21,NNE,22,0.0,1.0,90,0.00,,---,0.00,VWS V14.01,2013-01-03 06:10:00,
2013-01-03 01:15:00,43.9,41.5,30.20,NNE,22,0.0,0.0,91,0.00,,---,0.00,VWS V14.01,2013-01-03 06:15:00,
2013-01-03 01:20:00,43.8,41.3,30.20,NNE,22,0.0,0.0,91,0.00,,---,0.00,VWS V14.01,2013-01-03 06:20:00,
2013-01-03 01:25:00,43.8,41.3,30.20,NNE,22,0.0,0.0,91,0.00,,---,0.00,VWS V14.01,2013-01-03 06:25:00,
2013-01-03 01:30:00,43.8,41.3,30.20,NNE,22,0.0,0.0,91,0.00,,---,0.00,VWS V14.01,2013-01-03 06:30:00,
2013-01-03 01:35:00,43.7,41.2,30.20,NNE,22,0.0,1.0,91,0.00,,---,0.00,VWS V14.01,2013-01-03 06:35:00,
2013-01-03 01:40:00,43.6,41.2,30.20,NNE,22,0.0,0.0,91,0.00,,---,0.00,VWS V14.01,2013-01-03 06:40:00,
2013-01-03 01:45:00,43.6,41.2,30.21,NNE,22,0.0,0.0,91,0.00,,---,0.00,VWS V14.01,2013-01-03 06:45:00,
2013-01-03 01:50:00,43.5,41.0,30.21,NNE,22,0.0,0.0,91,0.00,,---,0.00,VWS V14.01,2013-01-03 06:50:00,
2013-01-03 01:55:00,43.4,41.0,30.21,NNE,22,0.0,0.0,91,0.00,,---,0.00,VWS V14.01,2013-01-03 06:55:00,
2013-01-03 02:00:00,43.3,40.8,30.21,NNE,22,0.0,0.0,91,0.00,,---,0.00,VWS V14.01,2013-01-03 07:00:00,
2013-01-03 02:05:00,43.2,40.8,30.21,NNW,338,0.0,3.0,91,0.00,,---,0.00,VWS V14.01,2013-01-03 07:05:00,
2013-01-03 02:10:00,43.2,40.8,30.21,NNW,338,0.0,0.0,91,0.00,,---,0.00,VWS V14.01,2013-01-03 07:10:00,
2013-01-03 02:15:00,43.2,40.8,30.22,NNW,338,0.0,0.0,91,0.00,,---,0.00,VWS V14.01,2013-01-03 07:15:00,
2013-01-03 02:20:00,43.2,40.8,30.22,NNW,338,0.0,0.0,91,0.00,,---,0.00,VWS V14.01,2013-01-03 07:20:00,
2013-01-03 02:25:00,43.1,40.7,30.22,NNW,338,0.0,0.0,91,0.00,,---,0.00,VWS V14.01,2013-01-03 07:25:00,
2013-01-03 02:30:00,43.1,40.7,30.23,NNW,338,0.0,0.0,91,0.00,,---,0.00,VWS V14.01,2013-01-03 07:30:00,
2013-01-03 02:35:00,43.1,40.7,30.23,NNW,338,0.0,0.0,91,0.00,,---,0.00,VWS V14.01,2013-01-03 07:35:00,
2013-01-03 02:40:00,43.0,40.6,30.23,NNW,338,0.0,0.0,91,0.00,,---,0.00,VWS V14.01,2013-01-03 07:40:00,
2013-01-03 02:45:00,42.9,40.5,30.24,NNW,338,0.0,0.0,91,0.00,,---,0.00,VWS V14.01,2013-01-03 07:45:00,
2013-01-03 02:50:00,42.9,40.5,30.24,WNW,292,0.0,1.0,91,0.00,,---,0.00,VWS V14.01,2013-01-03 07:50:00,
2013-01-03 02:55:00,42.9,40.5,30.24,WNW,292,0.0,0.0,91,0.00,,---,0.00,VWS V14.01,2013-01-03 07:55:00,
2013-01-03 03:00:00,42.9,40.5,30.24,WNW,292,0.0,1.0,91,0.00,,---,0.00,VWS V14.01,2013-01-03 08:00:00,
2013-01-03 03:05:00,42.8,40.4,30.24,WNW,292,0.0,0.0,91,0.00,,---,0.00,VWS V14.01,2013-01-03 08:05:00,
2013-01-03 03:10:00,42.8,40.4,30.24,WNW,292,0.0,0.0,91,0.00,,---,0.00,VWS V14.01,2013-01-03 08:10:00,
2013-01-03 03:15:00,42.8,40.4,30.24,WNW,292,0.0,0.0,91,0.00,,---,0.00,VWS V14.01,2013-01-03 08:15:00,
2013-01-03 03:20:00,42.8,40.4,30.24,WNW,292,0.0,0.0,91,0.00,,---,0.00,VWS V14.01,2013-01-03 08:20:00,
2013-01-03 03:25:00,42.8,40.4,30.24,WNW,292,0.0,0.0,91,0.00,,---,0.00,VWS V14.01,2013-01-03 08:25:00,
2013-01-03 03:30:00,42.8,40.4,30.25,WNW,292,0.0,0.0,91,0.00,,---,0.00,VWS V14.01,2013-01-03 08:30:00,
2013-01-03 03:35:00,42.6,40.2,30.25,WNW,292,0.0,0.0,91,0.00,,---,0.00,VWS V14.01,2013-01-03 08:35:00,
2013-01-03 03:40:00,42.6,40.2,30.25,WNW,292,0.0,0.0,91,0.00,,---,0.00,VWS V14.01,2013-01-03 08:40:00,
2013-01-03 03:45:00,42.6,40.2,30.25,WNW,292,0.0,0.0,91,0.00,,---,0.00,VWS V14.01,2013-01-03 08:45:00,
2013-01-03 03:50:00,42.6,40.2,30.25,WNW,292,0.0,0.0,91,0.00,,---,0.00,VWS V14.01,2013-01-03 08:50:00,
2013-01-03 03:55:00,42.6,40.2,30.25,WNW,292,0.0,0.0,91,0.00,,---,0.00,VWS V14.01,2013-01-03 08:55:00,
2013-01-03 04:00:00,42.6,40.2,30.24,WNW,292,0.0,0.0,91,0.00,,---,0.00,VWS V14.01,2013-01-03 09:00:00,
2013-01-03 04:05:00,42.5,40.1,30.24,WNW,292,0.0,0.0,91,0.00,,---,0.00,VWS V14.01,2013-01-03 09:05:00,
2013-01-03 04:10:00,42.5,40.1,30.24,WNW,292,0.0,0.0,91,0.00,,---,0.00,VWS V14.01,2013-01-03 09:10:00,
2013-01-03 04:15:00,42.5,40.1,30.24,WNW,292,0.0,0.0,91,0.00,,---,0.00,VWS V14.01,2013-01-03 09:15:00,
2013-01-03 04:20:00,42.4,40.0,30.24,WNW,292,0.0,0.0,91,0.00,,---,0.00,VWS V14.01,2013-01-03 09:20:00,
2013-01-03 04:25:00,42.3,39.9,30.24,WNW,292,0.0,0.0,91,0.00,,---,0.00,VWS V14.01,2013-01-03 09:25:00,
2013-01-03 04:30:00,42.3,39.9,30.22,ENE,68,0.0,1.0,91,0.00,,---,0.00,VWS V14.01,2013-01-03 09:30:00,
2013-01-03 04:35:00,42.3,39.9,30.22,East,90,0.0,1.0,91,0.00,,---,0.00,VWS V14.01,2013-01-03 09:35:00,
2013-01-03 04:40:00,42.3,39.9,30.22,NNW,338,0.0,1.0,91,0.00,,---,0.00,VWS V14.01,2013-01-03 09:40:00,
2013-01-03 04:45:00,42.2,39.8,30.21,NNW,338,0.0,1.0,91,0.00,,---,0.00,VWS V14.01,2013-01-03 09:45:00,
2013-01-03 04:50:00,42.1,39.7,30.21,NNW,338,0.0,1.0,91,0.00,,---,0.00,VWS V14.01,2013-01-03 09:50:00,
2013-01-03 04:55:00,42.1,39.7,30.21,NNW,338,0.0,1.0,91,0.00,,---,0.00,VWS V14.01,2013-01-03 09:55:00,
2013-01-03 05:00:00,42.1,39.7,30.21,NNW,338,0.0,1.0,91,0.00,,---,0.00,VWS V14.01,2013-01-03 10:00:00,
2013-01-03 05:05:00,42.1,39.7,30.21,NNW,338,0.0,0.0,91,0.00,,---,0.00,VWS V14.01,2013-01-03 10:05:00,
2013-01-03 05:10:00,42.0,39.6,30.21,NNW,338,0.0,0.0,91,0.00,,---,0.00,VWS V14.01,2013-01-03 10:10:00,
2013-01-03 05:15:00,41.9,39.5,30.22,NNW,338,0.0,0.0,91,0.00,,---,0.00,VWS V14.01,2013-01-03 10:15:00,
2013-01-03 05:20:00,41.9,39.5,30.22,NNW,338,0.0,0.0,91,0.00,,---,0.00,VWS V14.01,2013-01-03 10:20:00,
2013-01-03 05:25:00,41.9,39.5,30.22,NNW,338,0.0,0.0,91,0.00,,---,0.00,VWS V14.01,2013-01-03 10:25:00,
2013-01-03 05:30:00,41.9,39.5,30.22,NNW,338,0.0,0.0,91,0.00,,---,0.00,VWS V14.01,2013-01-03 10:30:00,
2013-01-03 05:35:00,41.9,39.5,30.22,NNW,338,0.0,0.0,91,0.00,,---,0.00,VWS V14.01,2013-01-03 10:35:00,
2013-01-03 05:40:00,41.9,39.5,30.22,NNW,338,0.0,0.0,91,0.00,,---,0.00,VWS V14.01,2013-01-03 10:40:00,
2013-01-03 05:45:00,41.9,39.5,30.23,NNW,338,0.0,0.0,91,0.00,,---,0.00,VWS V14.01,2013-01-03 10:45:00,
2013-01-03 05:50:00,41.8,39.4,30.23,NNW,338,0.0,0.0,91,0.00,,---,0.00,VWS V14.01,2013-01-03 10:50:00,
2013-01-03 05:55:00,41.8,39.4,30.23,NNW,338,0.0,0.0,91,0.00,,---,0.00,VWS V14.01,2013-01-03 10:55:00,
2013-01-03 06:00:00,41.8,39.4,30.23,NNW,338,0.0,0.0,91,0.00,,---,0.00,VWS V14.01,2013-01-03 11:00:00,
2013-01-03 06:05:00,41.8,39.4,30.23,WNW,292,0.0,1.0,91,0.00,,---,0.00,VWS V14.01,2013-01-03 11:05:00,
2013-01-03 06:10:00,41.8,39.4,30.23,WNW,292,0.0,0.0,91,0.00,,---,0.00,VWS V14.01,2013-01-03 11:10:00,
2013-01-03 06:15:00,41.8,39.4,30.24,WNW,292,0.0,0.0,91,0.00,,---,0.00,VWS V14.01,2013-01-03 11:15:00,
2013-01-03 06:20:00,41.8,39.4,30.24,WNW,292,0.0,0.0,91,0.00,,---,0.00,VWS V14.01,2013-01-03 11:20:00,
2013-01-03 06:25:00,41.8,39.4,30.24,WNW,292,0.0,0.0,91,0.00,,---,0.00,VWS V14.01,2013-01-03 11:25:00,
2013-01-03 06:30:00,41.8,39.4,30.24,WNW,292,0.0,0.0,91,0.00,,---,0.00,VWS V14.01,2013-01-03 11:30:00,
2013-01-03 06:35:00,41.8,39.4,30.24,WNW,292,0.0,0.0,91,0.00,,---,0.00,VWS V14.01,2013-01-03 11:35:00,
2013-01-03 06:40:00,41.8,39.4,30.24,WNW,292,0.0,0.0,91,0.00,,---,0.00,VWS V14.01,2013-01-03 11:40:00,
2013-01-03 06:45:00,41.6,39.2,30.25,NNW,338,0.0,1.0,91,0.00,,---,0.00,VWS V14.01,2013-01-03 11:45:00,
2013-01-03 06:50:00,41.6,39.2,30.25,NNW,338,0.0,0.0,91,0.00,,---,0.00,VWS V14.01,2013-01-03 11:50:00,
2013-01-03 06:55:00,41.6,39.2,30.25,NNW,338,0.0,0.0,91,0.00,,---,0.00,VWS V14.01,2013-01-03 11:55:00,
2013-01-03 07:00:00,41.6,39.2,30.25,NNW,338,0.0,0.0,91,0.00,,---,0.00,VWS V14.01,2013-01-03 12:00:00,
2013-01-03 07:05:00,41.6,39.2,30.25,NNW,338,0.0,0.0,91,0.00,,---,0.00,VWS V14.01,2013-01-03 12:05:00,
2013-01-03 07:10:00,41.6,39.2,30.25,NNW,338,0.0,0.0,91,0.00,,---,0.00,VWS V14.01,2013-01-03 12:10:00,
2013-01-03 07:15:00,41.6,39.2,30.25,NNW,338,0.0,0.0,91,0.00,,---,0.00,VWS V14.01,2013-01-03 12:15:00,
2013-01-03 07:20:00,41.6,39.2,30.25,NNW,338,0.0,0.0,91,0.00,,---,0.00,VWS V14.01,2013-01-03 12:20:00,
2013-01-03 07:25:00,41.6,39.2,30.25,NNW,338,0.0,1.0,91,0.00,,---,0.00,VWS V14.01,2013-01-03 12:25:00,
2013-01-03 07:30:00,41.6,39.2,30.25,NNW,338,0.0,0.0,91,0.00,,---,0.00,VWS V14.01,2013-01-03 12:30:00,
2013-01-03 07:35:00,41.6,39.2,30.25,NNW,338,0.0,0.0,91,0.00,,---,0.00,VWS V14.01,2013-01-03 12:35:00,
2013-01-03 07:40:00,41.6,39.2,30.25,NNW,338,0.0,0.0,91,0.00,,---,0.00,VWS V14.01,2013-01-03 12:40:00,
2013-01-03 07:45:00,41.6,39.2,30.26,NNW,338,0.0,0.0,91,0.00,,---,0.00,VWS V14.01,2013-01-03 12:45:00,
2013-01-03 07:50:00,41.6,39.2,30.26,NNW,338,0.0,0.0,91,0.00,,---,0.00,VWS V14.01,2013-01-03 12:50:00,
2013-01-03 07:55:00,41.6,39.2,30.26,NNW,338,0.0,0.0,91,0.00,,---,0.00,VWS V14.01,2013-01-03 12:55:00,
2013-01-03 08:00:00,41.6,39.2,30.26,NNW,338,0.0,0.0,91,0.00,,---,0.00,VWS V14.01,2013-01-03 13:00:00,
2013-01-03 08:05:00,41.6,39.2,30.26,NNW,338,0.0,0.0,91,0.00,,---,0.00,VWS V14.01,2013-01-03 13:05:00,
2013-01-03 08:10:00,41.6,39.2,30.26,NNW,338,0.0,0.0,91,0.00,,---,0.00,VWS V14.01,2013-01-03 13:10:00,
2013-01-03 08:15:00,41.6,39.2,30.27,NNW,338,0.0,0.0,91,0.00,,---,0.00,VWS V14.01,2013-01-03 13:15:00,
2013-01-03 08:20:00,41.5,39.1,30.27,NNW,338,0.0,0.0,91,0.00,,---,0.00,VWS V14.01,2013-01-03 13:20:00,
2013-01-03 08:25:00,41.6,39.2,30.27,NNW,338,0.0,0.0,91,0.00,,---,0.00,VWS V14.01,2013-01-03 13:25:00,
2013-01-03 08:30:00,41.6,39.2,30.27,NNW,338,0.0,0.0,91,0.00,,---,0.00,VWS V14.01,2013-01-03 13:30:00,
2013-01-03 08:35:00,41.6,39.2,30.27,NNW,338,0.0,0.0,91,0.00,,---,0.00,VWS V14.01,2013-01-03 13:35:00,
2013-01-03 08:40:00,41.7,39.3,30.27,NNW,338,0.0,0.0,91,0.00,,---,0.00,VWS V14.01,2013-01-03 13:40:00,
2013-01-03 08:45:00,41.8,39.4,30.28,NNW,338,0.0,0.0,91,0.00,,---,0.00,VWS V14.01,2013-01-03 13:45:00,
2013-01-03 08:50:00,41.8,39.4,30.28,NNW,338,0.0,0.0,91,0.00,,---,0.00,VWS V14.01,2013-01-03 13:50:00,
2013-01-03 08:55:00,41.9,39.5,30.28,NNW,338,0.0,0.0,91,0.00,,---,0.00,VWS V14.01,2013-01-03 13:55:00,
2013-01-03 09:00:00,41.9,39.5,30.28,NNW,338,0.0,0.0,91,0.00,,---,0.00,VWS V14.01,2013-01-03 14:00:00,
2013-01-03 09:05:00,41.9,39.5,30.28,NNW,338,0.0,0.0,91,0.00,,---,0.00,VWS V14.01,2013-01-03 14:05:00,
2013-01-03 09:10:00,41.9,39.5,30.28,NNW,338,0.0,0.0,91,0.00,,---,0.00,VWS V14.01,2013-01-03 14:10:00,
2013-01-03 09:15:00,42.0,39.6,30.28,NNW,338,0.0,0.0,91,0.00,,---,0.00,VWS V14.01,2013-01-03 14:15:00,
2013-01-03 09:20:00,42.1,39.7,30.28,NNW,338,0.0,0.0,91,0.00,,---,0.00,VWS V14.01,2013-01-03 14:20:00,
2013-01-03 09:25:00,42.1,39.7,30.28,NNW,338,0.0,0.0,91,0.00,,---,0.00,VWS V14.01,2013-01-03 14:25:00,
2013-01-03 09:30:00,42.1,39.7,30.29,NW,315,0.0,2.0,91,0.00,,---,0.00,VWS V14.01,2013-01-03 14:30:00,
2013-01-03 09:35:00,42.1,39.7,30.29,NW,315,0.0,1.0,91,0.00,,---,0.00,VWS V14.01,2013-01-03 14:35:00,
2013-01-03 09:40:00,42.1,39.7,30.29,NW,315,0.0,1.0,91,0.00,,---,0.00,VWS V14.01,2013-01-03 14:40:00,
2013-01-03 09:45:00,42.1,39.7,30.29,NW,315,0.0,1.0,91,0.00,,---,0.00,VWS V14.01,2013-01-03 14:45:00,
2013-01-03 09:50:00,42.0,39.3,30.29,NW,315,0.0,2.0,90,0.00,,---,0.00,VWS V14.01,2013-01-03 14:50:00,
2013-01-03 09:55:00,42.1,39.4,30.29,NW,315,0.0,0.0,90,0.00,,---,0.00,VWS V14.01,2013-01-03 14:55:00,
2013-01-03 10:00:00,42.1,38.5,30.30,NW,315,0.0,1.0,87,0.00,,---,0.00,VWS V14.01,2013-01-03 15:00:00,
2013-01-03 10:05:00,42.1,38.8,30.30,NW,315,0.0,2.0,88,0.00,,---,0.00,VWS V14.01,2013-01-03 15:05:00,
2013-01-03 10:10:00,42.2,38.6,30.30,NW,315,0.0,0.0,87,0.00,,---,0.00,VWS V14.01,2013-01-03 15:10:00,
2013-01-03 10:15:00,42.2,38.6,30.29,NW,315,0.0,0.0,87,0.00,,---,0.00,VWS V14.01,2013-01-03 15:15:00,
2013-01-03 10:20:00,42.4,38.8,30.29,NW,315,0.0,0.0,87,0.00,,---,0.00,VWS V14.01,2013-01-03 15:20:00,
2013-01-03 10:25:00,42.6,39.0,30.29,NW,315,0.0,0.0,87,0.00,,---,0.00,VWS V14.01,2013-01-03 15:25:00,
2013-01-03 10:30:00,42.6,39.0,30.30,NW,315,0.0,0.0,87,0.00,,---,0.00,VWS V14.01,2013-01-03 15:30:00,
2013-01-03 10:35:00,42.7,39.1,30.30,NW,315,0.0,0.0,87,0.00,,---,0.00,VWS V14.01,2013-01-03 15:35:00,
2013-01-03 10:40:00,42.8,39.2,30.30,NW,315,0.0,0.0,87,0.00,,---,0.00,VWS V14.01,2013-01-03 15:40:00,
2013-01-03 10:45:00,42.8,38.6,30.29,NW,315,0.0,1.0,85,0.00,,---,0.00,VWS V14.01,2013-01-03 15:45:00,
2013-01-03 10:50:00,42.8,38.9,30.29,NW,315,0.0,1.0,86,0.00,,---,0.00,VWS V14.01,2013-01-03 15:50:00,
2013-01-03 10:55:00,42.8,39.2,30.29,NW,315,0.0,0.0,87,0.00,,---,0.00,VWS V14.01,2013-01-03 15:55:00,
2013-01-03 11:00:00,42.7,39.4,30.28,NW,315,0.0,0.0,88,0.00,,---,0.00,VWS V14.01,2013-01-03 16:00:00,
2013-01-03 11:05:00,42.9,39.9,30.28,NE,45,0.0,1.0,89,0.00,,---,0.00,VWS V14.01,2013-01-03 16:05:00,
2013-01-03 11:10:00,43.1,39.2,30.28,NE,45,0.0,0.0,86,0.00,,---,0.00,VWS V14.01,2013-01-03 16:10:00,
2013-01-03 11:15:00,43.2,38.4,30.29,NNE,22,0.0,1.0,83,0.00,,---,0.00,VWS V14.01,2013-01-03 16:15:00,
2013-01-03 11:20:00,43.3,38.2,30.29,NNE,22,0.0,0.0,82,0.00,,---,0.00,VWS V14.01,2013-01-03 16:20:00,
2013-01-03 11:25:00,43.3,38.2,30.29,NNE,22,0.0,0.0,82,0.00,,---,0.00,VWS V14.01,2013-01-03 16:25:00,
2013-01-03 11:30:00,43.4,37.7,30.28,NNE,22,0.0,0.0,80,0.00,,---,0.00,VWS V14.01,2013-01-03 16:30:00,
2013-01-03 11:35:00,43.5,38.1,30.28,NNE,22,0.0,0.0,81,0.00,,---,0.00,VWS V14.01,2013-01-03 16:35:00,
2013-01-03 11:40:00,43.6,37.5,30.28,NNE,22,0.0,0.0,79,0.00,,---,0.00,VWS V14.01,2013-01-03 16:40:00,
2013-01-03 11:45:00,43.6,37.8,30.27,NNE,22,0.0,1.0,80,0.00,,---,0.00,VWS V14.01,2013-01-03 16:45:00,
2013-01-03 11:50:00,43.6,37.2,30.27,North,0,0.0,1.0,78,0.00,,---,0.00,VWS V14.01,2013-01-03 16:50:00,
2013-01-03 11:55:00,43.6,37.5,30.27,North,0,0.0,1.0,79,0.00,,---,0.00,VWS V14.01,2013-01-03 16:55:00,
2013-01-03 12:00:00,43.6,37.5,30.27,North,0,0.0,0.0,79,0.00,,---,0.00,VWS V14.01,2013-01-03 17:00:00,
2013-01-03 12:05:00,43.6,37.5,30.27,North,0,0.0,0.0,79,0.00,,---,0.00,VWS V14.01,2013-01-03 17:05:00,
2013-01-03 12:10:00,43.6,37.2,30.27,NNE,22,0.0,1.0,78,0.00,,---,0.00,VWS V14.01,2013-01-03 17:10:00,
2013-01-03 12:15:00,43.6,36.5,30.26,NNE,22,0.0,0.0,76,0.00,,---,0.00,VWS V14.01,2013-01-03 17:15:00,
2013-01-03 12:20:00,43.7,37.3,30.26,NNE,22,0.0,0.0,78,0.00,,---,0.00,VWS V14.01,2013-01-03 17:20:00,
2013-01-03 12:25:00,43.9,36.8,30.26,NNE,22,0.0,1.0,76,0.00,,---,0.00,VWS V14.01,2013-01-03 17:25:00,
2013-01-03 12:30:00,44.1,37.4,30.25,NNW,338,0.0,1.0,77,0.00,,---,0.00,VWS V14.01,2013-01-03 17:30:00,
2013-01-03 12:35:00,44.1,37.0,30.25,NNW,338,0.0,1.0,76,0.00,,---,0.00,VWS V14.01,2013-01-03 17:35:00,
2013-01-03 12:40:00,43.9,37.5,30.25,NNE,22,0.0,1.0,78,0.00,,---,0.00,VWS V14.01,2013-01-03 17:40:00,
2013-01-03 12:45:00,43.9,36.5,30.25,NNE,22,0.0,0.0,75,0.00,,---,0.00,VWS V14.01,2013-01-03 17:45:00,
2013-01-03 12:50:00,43.9,36.5,30.25,East,90,0.0,1.0,75,0.00,,---,0.00,VWS V14.01,2013-01-03 17:50:00,
2013-01-03 12:55:00,43.9,36.8,30.25,East,90,0.0,0.0,76,0.00,,---,0.00,VWS V14.01,2013-01-03 17:55:00,
2013-01-03 13:00:00,44.0,36.6,30.25,East,90,0.0,0.0,75,0.00,,---,0.00,VWS V14.01,2013-01-03 18:00:00,
2013-01-03 13:05:00,44.2,36.5,30.25,East,90,0.0,0.0,74,0.00,,---,0.00,VWS V14.01,2013-01-03 18:05:00,
2013-01-03 13:10:00,44.3,36.5,30.25,East,90,0.0,0.0,74,0.00,,---,0.00,VWS V14.01,2013-01-03 18:10:00,
2013-01-03 13:15:00,44.3,35.9,30.25,WNW,292,0.0,1.0,72,0.00,,---,0.00,VWS V14.01,2013-01-03 18:15:00,
2013-01-03 13:20:00,44.3,35.9,30.25,WNW,292,0.0,0.0,72,0.00,,---,0.00,VWS V14.01,2013-01-03 18:20:00,
2013-01-03 13:25:00,44.3,35.9,30.25,WNW,292,0.0,1.0,72,0.00,,---,0.00,VWS V14.01,2013-01-03 18:25:00,
2013-01-03 13:30:00,44.2,35.8,30.25,WNW,292,0.0,0.0,72,0.00,,---,0.00,VWS V14.01,2013-01-03 18:30:00,
2013-01-03 13:35:00,44.3,37.2,30.25,WNW,292,0.0,0.0,76,0.00,,---,0.00,VWS V14.01,2013-01-03 18:35:00,
2013-01-03 13:40:00,44.4,36.7,30.25,WNW,292,0.0,0.0,74,0.00,,---,0.00,VWS V14.01,2013-01-03 18:40:00,
2013-01-03 13:45:00,44.5,36.4,30.24,WNW,292,0.0,0.0,73,0.00,,---,0.00,VWS V14.01,2013-01-03 18:45:00,
2013-01-03 13:50:00,44.5,36.0,30.24,WNW,292,0.0,0.0,72,0.00,,---,0.00,VWS V14.01,2013-01-03 18:50:00,
2013-01-03 13:55:00,44.5,36.4,30.24,WNW,292,0.0,0.0,73,0.00,,---,0.00,VWS V14.01,2013-01-03 18:55:00,
2013-01-03 14:00:00,44.5,36.0,30.23,WNW,292,0.0,0.0,72,0.00,,---,0.00,VWS V14.01,2013-01-03 19:00:00,
2013-01-03 14:05:00,44.5,36.0,30.23,WNW,292,0.0,0.0,72,0.00,,---,0.00,VWS V14.01,2013-01-03 19:05:00,
2013-01-03 14:10:00,44.4,36.7,30.23,WNW,292,0.0,0.0,74,0.00,,---,0.00,VWS V14.01,2013-01-03 19:10:00,
2013-01-03 14:15:00,44.4,37.3,30.23,WNW,292,0.0,0.0,76,0.00,,---,0.00,VWS V14.01,2013-01-03 19:15:00,
2013-01-03 14:20:00,44.3,36.5,30.23,WNW,292,0.0,0.0,74,0.00,,---,0.00,VWS V14.01,2013-01-03 19:20:00,
2013-01-03 14:25:00,44.3,36.9,30.23,WNW,292,0.0,0.0,75,0.00,,---,0.00,VWS V14.01,2013-01-03 19:25:00,
2013-01-03 14:30:00,44.3,37.2,30.25,WNW,292,0.0,0.0,76,0.00,,---,0.00,VWS V14.01,2013-01-03 19:30:00,
2013-01-03 14:35:00,44.5,36.7,30.25,WNW,292,0.0,0.0,74,0.00,,---,0.00,VWS V14.01,2013-01-03 19:35:00,
2013-01-03 14:40:00,44.5,36.7,30.25,WNW,292,0.0,0.0,74,0.00,,---,0.00,VWS V14.01,2013-01-03 19:40:00,
2013-01-03 14:45:00,44.3,36.2,30.25,WNW,292,0.0,0.0,73,0.00,,---,0.00,VWS V14.01,2013-01-03 19:45:00,
2013-01-03 14:50:00,44.3,36.5,30.25,WNW,292,0.0,0.0,74,0.00,,---,0.00,VWS V14.01,2013-01-03 19:50:00,
2013-01-03 14:55:00,44.5,36.4,30.25,WNW,292,0.0,0.0,73,0.00,,---,0.00,VWS V14.01,2013-01-03 19:55:00,
2013-01-03 15:00:00,44.5,37.4,30.26,WNW,292,0.0,0.0,76,0.00,,---,0.00,VWS V14.01,2013-01-03 20:00:00,
2013-01-03 15:05:00,44.6,36.8,30.26,WNW,292,0.0,0.0,74,0.00,,---,0.00,VWS V14.01,2013-01-03 20:05:00,
2013-01-03 15:10:00,44.6,36.8,30.26,NW,315,0.0,1.0,74,0.00,,---,0.00,VWS V14.01,2013-01-03 20:10:00,
2013-01-03 15:15:00,44.7,37.3,30.26,NW,315,0.0,0.0,75,0.00,,---,0.00,VWS V14.01,2013-01-03 20:15:00,
2013-01-03 15:20:00,44.8,37.7,30.26,NW,315,0.0,0.0,76,0.00,,---,0.00,VWS V14.01,2013-01-03 20:20:00,
2013-01-03 15:25:00,44.8,38.0,30.26,NW,315,0.0,0.0,77,0.00,,---,0.00,VWS V14.01,2013-01-03 20:25:00,
2013-01-03 15:30:00,44.7,37.3,30.27,NW,315,0.0,1.0,75,0.00,,---,0.00,VWS V14.01,2013-01-03 20:30:00,
2013-01-03 15:35:00,44.6,37.5,30.27,NW,315,0.0,0.0,76,0.00,,---,0.00,VWS V14.01,2013-01-03 20:35:00,
2013-01-03 15:40:00,44.6,37.5,30.27,NW,315,0.0,0.0,76,0.00,,---,0.00,VWS V14.01,2013-01-03 20:40:00,
2013-01-03 15:45:00,44.6,37.5,30.27,NW,315,0.0,0.0,76,0.00,,---,0.00,VWS V14.01,2013-01-03 20:45:00,
2013-01-03 15:50:00,44.6,37.5,30.27,NW,315,0.0,0.0,76,0.00,,---,0.00,VWS V14.01,2013-01-03 20:50:00,
2013-01-03 15:55:00,44.6,37.2,30.27,NW,315,0.0,0.0,75,0.00,,---,0.00,VWS V14.01,2013-01-03 20:55:00,
2013-01-03 16:00:00,44.8,38.0,30.27,NW,315,0.0,0.0,77,0.00,,---,0.00,VWS V14.01,2013-01-03 21:00:00,
2013-01-03 16:05:00,44.8,37.4,30.27,NW,315,0.0,0.0,75,0.00,,---,0.00,VWS V14.01,2013-01-03 21:05:00,
2013-01-03 16:10:00,44.8,37.7,30.27,NW,315,0.0,0.0,76,0.00,,---,0.00,VWS V14.01,2013-01-03 21:10:00,
2013-01-03 16:15:00,44.8,36.7,30.27,NW,315,0.0,0.0,73,0.00,,---,0.00,VWS V14.01,2013-01-03 21:15:00,
2013-01-03 16:20:00,44.8,37.0,30.27,NW,315,0.0,0.0,74,0.00,,---,0.00,VWS V14.01,2013-01-03 21:20:00,
2013-01-03 16:25:00,44.8,37.4,30.27,NW,315,0.0,0.0,75,0.00,,---,0.00,VWS V14.01,2013-01-03 21:25:00,
2013-01-03 16:30:00,44.8,37.4,30.28,NW,315,0.0,0.0,75,0.00,,---,0.00,VWS V14.01,2013-01-03 21:30:00,
2013-01-03 16:35:00,44.8,36.7,30.28,NW,315,0.0,0.0,73,0.00,,---,0.00,VWS V14.01,2013-01-03 21:35:00,
2013-01-03 16:40:00,44.8,36.7,30.28,NW,315,0.0,0.0,73,0.00,,---,0.00,VWS V14.01,2013-01-03 21:40:00,
2013-01-03 16:45:00,44.8,37.0,30.28,NW,315,0.0,1.0,74,0.00,,---,0.00,VWS V14.01,2013-01-03 21:45:00,
2013-01-03 16:50:00,44.6,37.2,30.28,NW,315,0.0,0.0,75,0.00,,---,0.00,VWS V14.01,2013-01-03 21:50:00,
2013-01-03 16:55:00,44.6,37.5,30.28,NW,315,0.0,0.0,76,0.00,,---,0.00,VWS V14.01,2013-01-03 21:55:00,
2013-01-03 17:00:00,44.6,37.2,30.29,NW,315,0.0,0.0,75,0.00,,---,0.00,VWS V14.01,2013-01-03 22:00:00,
2013-01-03 17:05:00,44.5,37.4,30.29,NW,315,0.0,0.0,76,0.00,,---,0.00,VWS V14.01,2013-01-03 22:05:00,
2013-01-03 17:10:00,44.5,37.1,30.29,NW,315,0.0,0.0,75,0.00,,---,0.00,VWS V14.01,2013-01-03 22:10:00,
2013-01-03 17:15:00,44.5,37.8,30.29,NW,315,0.0,0.0,77,0.00,,---,0.00,VWS V14.01,2013-01-03 22:15:00,
2013-01-03 17:20:00,44.3,37.9,30.29,NW,315,0.0,0.0,78,0.00,,---,0.00,VWS V14.01,2013-01-03 22:20:00,
2013-01-03 17:25:00,44.3,37.6,30.29,NW,315,0.0,0.0,77,0.00,,---,0.00,VWS V14.01,2013-01-03 22:25:00,
2013-01-03 17:30:00,44.2,37.8,30.29,NW,315,0.0,0.0,78,0.00,,---,0.00,VWS V14.01,2013-01-03 22:30:00,
2013-01-03 17:35:00,44.1,37.7,30.29,NW,315,0.0,0.0,78,0.00,,---,0.00,VWS V14.01,2013-01-03 22:35:00,
2013-01-03 17:40:00,44.0,38.5,30.29,NW,315,0.0,0.0,81,0.00,,---,0.00,VWS V14.01,2013-01-03 22:40:00,
2013-01-03 17:45:00,43.9,38.5,30.30,NW,315,0.0,0.0,81,0.00,,---,0.00,VWS V14.01,2013-01-03 22:45:00,
2013-01-03 17:50:00,43.7,38.9,30.30,NW,315,0.0,0.0,83,0.00,,---,0.00,VWS V14.01,2013-01-03 22:50:00,
2013-01-03 17:55:00,43.6,38.8,30.30,NW,315,0.0,0.0,83,0.00,,---,0.00,VWS V14.01,2013-01-03 22:55:00,
2013-01-03 18:00:00,43.4,39.2,30.30,NW,315,0.0,0.0,85,0.00,,---,0.00,VWS V14.01,2013-01-03 23:00:00,
2013-01-03 18:05:00,43.2,39.3,30.30,NW,315,0.0,0.0,86,0.00,,---,0.00,VWS V14.01,2013-01-03 23:05:00,
2013-01-03 18:10:00,42.9,39.3,30.30,NW,315,0.0,0.0,87,0.00,,---,0.00,VWS V14.01,2013-01-03 23:10:00,
2013-01-03 18:15:00,42.7,39.7,30.31,NW,315,0.0,0.0,89,0.00,,---,0.00,VWS V14.01,2013-01-03 23:15:00,
2013-01-03 18:20:00,42.5,39.8,30.31,NW,315,0.0,0.0,90,0.00,,---,0.00,VWS V14.01,2013-01-03 23:20:00,
2013-01-03 18:25:00,42.2,39.8,30.31,NW,315,0.0,0.0,91,0.00,,---,0.00,VWS V14.01,2013-01-03 23:25:00,
2013-01-03 18:30:00,42.0,39.6,30.32,NW,315,0.0,0.0,91,0.00,,---,0.00,VWS V14.01,2013-01-03 23:30:00,
2013-01-03 18:35:00,41.7,39.3,30.32,NW,315,0.0,0.0,91,0.00,,---,0.00,VWS V14.01,2013-01-03 23:35:00,
2013-01-03 18:40:00,41.4,39.0,30.32,NW,315,0.0,0.0,91,0.00,,---,0.00,VWS V14.01,2013-01-03 23:40:00,
2013-01-03 18:45:00,41.2,38.8,30.32,NW,315,0.0,0.0,91,0.00,,---,0.00,VWS V14.01,2013-01-03 23:45:00,
2013-01-03 18:50:00,41.0,38.6,30.32,NW,315,0.0,0.0,91,0.00,,---,0.00,VWS V14.01,2013-01-03 23:50:00,
2013-01-03 18:55:00,40.6,38.2,30.32,NW,315,0.0,0.0,91,0.00,,---,0.00,VWS V14.01,2013-01-03 23:55:00,
2013-01-03 19:00:00,40.2,37.8,30.33,NW,315,0.0,0.0,91,0.00,,---,0.00,VWS V14.01,2013-01-04 00:00:00,
2013-01-03 19:05:00,39.9,37.5,30.33,NW,315,0.0,0.0,91,0.00,,---,0.00,VWS V14.01,2013-01-04 00:05:00,
2013-01-03 19:10:00,39.6,37.2,30.33,NW,315,0.0,0.0,91,0.00,,---,0.00,VWS V14.01,2013-01-04 00:10:00,
2013-01-03 19:15:00,39.2,36.8,30.33,NW,315,0.0,0.0,91,0.00,,---,0.00,VWS V14.01,2013-01-04 00:15:00,
2013-01-03 19:20:00,39.0,36.6,30.33,NW,315,0.0,0.0,91,0.00,,---,0.00,VWS V14.01,2013-01-04 00:20:00,
2013-01-03 19:25:00,38.6,36.2,30.33,NW,315,0.0,0.0,91,0.00,,---,0.00,VWS V14.01,2013-01-04 00:25:00,
2013-01-03 19:30:00,38.3,35.9,30.34,NW,315,0.0,0.0,91,0.00,,---,0.00,VWS V14.01,2013-01-04 00:30:00,
2013-01-03 19:35:00,38.1,35.7,30.34,NW,315,0.0,0.0,91,0.00,,---,0.00,VWS V14.01,2013-01-04 00:35:00,
2013-01-03 19:40:00,37.9,35.5,30.34,NW,315,0.0,0.0,91,0.00,,---,0.00,VWS V14.01,2013-01-04 00:40:00,
2013-01-03 19:45:00,37.6,35.2,30.35,NW,315,0.0,0.0,91,0.00,,---,0.00,VWS V14.01,2013-01-04 00:45:00,
2013-01-03 19:50:00,37.3,34.9,30.35,NW,315,0.0,0.0,91,0.00,,---,0.00,VWS V14.01,2013-01-04 00:50:00,
2013-01-03 19:55:00,37.1,34.7,30.35,NW,315,0.0,0.0,91,0.00,,---,0.00,VWS V14.01,2013-01-04 00:55:00,
2013-01-03 20:00:00,36.9,34.5,30.35,NW,315,0.0,0.0,91,0.00,,---,0.00,VWS V14.01,2013-01-04 01:00:00,
2013-01-03 20:05:00,36.6,34.2,30.35,NW,315,0.0,0.0,91,0.00,,---,0.00,VWS V14.01,2013-01-04 01:05:00,
2013-01-03 20:10:00,36.4,34.0,30.35,NW,315,0.0,0.0,91,0.00,,---,0.00,VWS V14.01,2013-01-04 01:10:00,
2013-01-03 20:15:00,36.2,33.8,30.35,NW,315,0.0,0.0,91,0.00,,---,0.00,VWS V14.01,2013-01-04 01:15:00,
2013-01-03 20:20:00,35.9,33.5,30.35,NW,315,0.0,0.0,91,0.00,,---,0.00,VWS V14.01,2013-01-04 01:20:00,
2013-01-03 20:25:00,35.7,33.3,30.35,NW,315,0.0,0.0,91,0.00,,---,0.00,VWS V14.01,2013-01-04 01:25:00,
2013-01-03 20:30:00,35.4,33.0,30.36,NW,315,0.0,0.0,91,0.00,,---,0.00,VWS V14.01,2013-01-04 01:30:00,
2013-01-03 20:35:00,35.2,32.8,30.36,NW,315,0.0,0.0,91,0.00,,---,0.00,VWS V14.01,2013-01-04 01:35:00,
2013-01-03 20:40:00,34.9,32.5,30.36,NW,315,0.0,0.0,91,0.00,,---,0.00,VWS V14.01,2013-01-04 01:40:00,
2013-01-03 20:45:00,34.7,32.3,30.36,NW,315,0.0,0.0,91,0.00,,---,0.00,VWS V14.01,2013-01-04 01:45:00,
2013-01-03 20:50:00,34.5,32.2,30.36,NW,315,0.0,0.0,91,0.00,,---,0.00,VWS V14.01,2013-01-04 01:50:00,
2013-01-03 20:55:00,34.4,32.0,30.36,NW,315,0.0,0.0,91,0.00,,---,0.00,VWS V14.01,2013-01-04 01:55:00,
2013-01-03 21:00:00,34.2,31.9,30.36,NW,315,0.0,0.0,91,0.00,,---,0.00,VWS V14.01,2013-01-04 02:00:00,
2013-01-03 21:05:00,34.0,31.6,30.36,NW,315,0.0,0.0,91,0.00,,---,0.00,VWS V14.01,2013-01-04 02:05:00,
2013-01-03 21:10:00,33.8,31.5,30.36,NW,315,0.0,0.0,91,0.00,,---,0.00,VWS V14.01,2013-01-04 02:10:00,
2013-01-03 21:15:00,33.6,31.3,30.36,NW,315,0.0,0.0,91,0.00,,---,0.00,VWS V14.01,2013-01-04 02:15:00,
2013-01-03 21:20:00,33.4,31.1,30.36,NW,315,0.0,0.0,91,0.00,,---,0.00,VWS V14.01,2013-01-04 02:20:00,
2013-01-03 21:25:00,33.2,30.9,30.36,NW,315,0.0,0.0,91,0.00,,---,0.00,VWS V14.01,2013-01-04 02:25:00,
2013-01-03 21:30:00,33.1,30.8,30.36,NW,315,0.0,0.0,91,0.00,,---,0.00,VWS V14.01,2013-01-04 02:30:00,
2013-01-03 21:35:00,32.9,30.6,30.36,NW,315,0.0,0.0,91,0.00,,---,0.00,VWS V14.01,2013-01-04 02:35:00,
2013-01-03 21:40:00,32.8,30.5,30.36,NW,315,0.0,0.0,91,0.00,,---,0.00,VWS V14.01,2013-01-04 02:40:00,
2013-01-03 21:45:00,32.6,30.3,30.37,NW,315,0.0,0.0,91,0.00,,---,0.00,VWS V14.01,2013-01-04 02:45:00,
2013-01-03 21:50:00,32.4,30.1,30.37,NW,315,0.0,0.0,91,0.00,,---,0.00,VWS V14.01,2013-01-04 02:50:00,
2013-01-03 21:55:00,32.3,30.0,30.37,NW,315,0.0,0.0,91,0.00,,---,0.00,VWS V14.01,2013-01-04 02:55:00,
2013-01-03 22:00:00,32.1,29.8,30.37,NW,315,0.0,0.0,91,0.00,,---,0.00,VWS V14.01,2013-01-04 03:00:00,
2013-01-03 22:05:00,32.0,29.7,30.37,NW,315,0.0,0.0,91,0.00,,---,0.00,VWS V14.01,2013-01-04 03:05:00,
2013-01-03 22:10:00,31.8,29.5,30.37,NW,315,0.0,0.0,91,0.00,,---,0.00,VWS V14.01,2013-01-04 03:10:00,
2013-01-03 22:15:00,31.6,29.3,30.37,NW,315,0.0,0.0,91,0.00,,---,0.00,VWS V14.01,2013-01-04 03:15:00,
2013-01-03 22:20:00,31.5,29.2,30.37,NW,315,0.0,0.0,91,0.00,,---,0.00,VWS V14.01,2013-01-04 03:20:00,
2013-01-03 22:25:00,31.3,29.0,30.37,NW,315,0.0,0.0,91,0.00,,---,0.00,VWS V14.01,2013-01-04 03:25:00,
2013-01-03 22:30:00,31.2,28.9,30.37,NW,315,0.0,0.0,91,0.00,,---,0.00,VWS V14.01,2013-01-04 03:30:00,
2013-01-03 22:35:00,31.1,28.8,30.37,NW,315,0.0,0.0,91,0.00,,---,0.00,VWS V14.01,2013-01-04 03:35:00,
2013-01-03 22:40:00,30.9,28.6,30.37,NW,315,0.0,0.0,91,0.00,,---,0.00,VWS V14.01,2013-01-04 03:40:00,
2013-01-03 22:45:00,30.8,28.5,30.38,NW,315,0.0,0.0,91,0.00,,---,0.00,VWS V14.01,2013-01-04 03:45:00,
2013-01-03 22:50:00,30.6,28.3,30.38,NW,315,0.0,0.0,91,0.00,,---,0.00,VWS V14.01,2013-01-04 03:50:00,
2013-01-03 22:55:00,30.6,28.3,30.38,NW,315,0.0,0.0,91,0.00,,---,0.00,VWS V14.01,2013-01-04 03:55:00,
2013-01-03 23:00:00,30.4,28.1,30.38,NW,315,0.0,0.0,91,0.00,,---,0.00,VWS V14.01,2013-01-04 04:00:00,
2013-01-03 23:05:00,30.3,28.0,30.38,NW,315,0.0,0.0,91,0.00,,---,0.00,VWS V14.01,2013-01-04 04:05:00,
2013-01-03 23:10:00,30.2,27.9,30.38,NW,315,0.0,0.0,91,0.00,,---,0.00,VWS V14.01,2013-01-04 04:10:00,
2013-01-03 23:15:00,30.1,27.8,30.38,NW,315,0.0,0.0,91,0.00,,---,0.00,VWS V14.01,2013-01-04 04:15:00,
2013-01-03 23:20:00,30.0,27.7,30.38,NW,315,0.0,0.0,91,0.00,,---,0.00,VWS V14.01,2013-01-04 04:20:00,
2013-01-03 23:25:00,30.0,27.7,30.38,NW,315,0.0,0.0,91,0.00,,---,0.00,VWS V14.01,2013-01-04 04:25:00,
2013-01-03 23:30:00,29.8,27.5,30.37,NW,315,0.0,0.0,91,0.00,,---,0.00,VWS V14.01,2013-01-04 04:30:00,
2013-01-03 23:35:00,29.8,27.5,30.37,NW,315,0.0,0.0,91,0.00,,---,0.00,VWS V14.01,2013-01-04 04:35:00,
2013-01-03 23:40:00,29.7,27.4,30.37,NW,315,0.0,0.0,91,0.00,,---,0.00,VWS V14.01,2013-01-04 04:40:00,
2013-01-03 23:45:00,29.6,27.3,30.37,NW,315,0.0,0.0,91,0.00,,---,0.00,VWS V14.01,2013-01-04 04:45:00,
2013-01-03 23:50:00,29.5,27.2,30.37,NW,315,0.0,0.0,91,0.00,,---,0.00,VWS V14.01,2013-01-04 04:50:00,
2013-01-03 23:55:00,29.4,27.1,30.37,NW,315,0.0,0.0,91,0.00,,---,0.00,VWS V14.01,2013-01-04 04:55:00,